Regional Weather Roundup
Issued by NWS Little Rock, AR

Home | Current Version | Previous Version | Text Only | Print | Product List | Glossary Off
Versions: 1 2 3 4 5 6 7 8 9 10 11 12 13 14 15 16 17 18 19 20 21 22 23 24 25 26 27 28 29 30 31 32 33 34 35 36 37 38 39 40 41 42 43 44 45 46 47

000
ASUS44 KLZK 281305
RWRLZK

WEATHER ROUNDUP FOR ARKANSAS
NATIONAL WEATHER SERVICE LITTLE ROCK AR
700 AM CST FRI NOV 28 2014

NOTE: "FAIR" INDICATES FEW OR NO CLOUDS BELOW 12,000 FEET WITH NO
SIGNIFICANT WEATHER AND/OR OBSTRUCTIONS TO VISIBILITY.

ARZ001-003-010-029-281400-
NORTHWEST ARKANSAS

CITY           SKY/WX    TMP DP  RH WIND       PRES   REMARKS
FAYETTEVILLE   CLEAR     38  27  64 S20G29    30.20F
FORT SMITH     CLEAR     32  27  81 NE7       30.28S WCI  26
HARRISON       CLEAR     36  27  69 SE12      30.22S
BENTONVILLE    CLEAR     37  25  60 S9        30.19S
ROGERS         CLEAR     37  26  64 S10       30.18F
SILOAM SPGS    CLEAR     39  25  56 S13       30.19F
HIGHFILL       CLEAR     36  27  69 S10       30.17F
SPRINGDALE     CLEAR     39  27  60 S9        30.21S
$$

ARZ004-005-016-281400-
NORTH CENTRAL ARKANSAS

CITY           SKY/WX    TMP DP  RH WIND       PRES   REMARKS
BATESVILLE     CLEAR     32  27  80 SE6       30.35S WCI  26
FLIPPIN        CLEAR     34  25  69 SE5       30.26S WCI  30
MTN HOME       CLEAR     32  27  81 S7        30.25F WCI  26
$$

ARZ040-041-281400-
WEST CENTRAL ARKANSAS

CITY           SKY/WX    TMP DP  RH WIND       PRES   REMARKS
MENA           CLEAR     43  32  65 S8        30.31S
MOUNT IDA      CLEAR     38  30  73 CALM      30.30S
$$

ARZ009-017-025-026-028-281400-
NORTHEAST ARKANSAS

CITY           SKY/WX    TMP DP  RH WIND       PRES   REMARKS
CORNING        FAIR      28  28 100 S3        30.36F FOG
JONESBORO      CLEAR     30  28  92 SE6       30.38S WCI  24
NEWPORT        CLEAR     30  29  96 S6        30.39R WCI  24
WALNUT RIDGE   CLEAR     30  25  80 S9        30.35F WCI  22
BLYTHEVILLE    CLEAR     37  25  61 S10       30.40F
$$

ARZ022-023-033-042-044-281400-
CENTRAL ARKANSAS

CITY           SKY/WX    TMP DP  RH WIND       PRES   REMARKS
LITTLE ROCK    PTCLDY    31  26  82 CALM      30.37F
N LITTLE ROCK    N/A     33  31  91 S9        30.37F WCI  26
JACKSONVILLE   CLEAR     25  22  89 CALM      30.37R
SEARCY         CLEAR     26  25  96 CALM      30.39R FOG
HOT SPRINGS    CLEAR     36  30  79 SE6       30.35F
RUSSELLVILLE   CLEAR     29  26  89 CALM      30.33S
CLINTON        FAIR      25  23  93 CALM      30.37S
$$

ARZ036-281400-
EAST ARKANSAS

CITY           SKY/WX    TMP DP  RH WIND       PRES   REMARKS
WEST MEMPHIS   CLEAR     29  26  89 S7        30.40S WCI  22
$$

ARZ050-053-066-070-073-281400-
SOUTHWEST ARKANSAS

CITY           SKY/WX    TMP DP  RH WIND       PRES   REMARKS
ARKADELPHIA    FAIR      28  28 100 CALM      30.38F FOG
CAMDEN         CLEAR     28  27  93 MISG      30.39F FOG
TEXARKANA      CLEAR     33  30  88 SE6       30.35S WCI  28
EL DORADO      CLEAR     31  29  92 SE5       30.39S WCI  26
DE QUEEN       CLEAR     28  27  96 E3        30.34S FOG
$$

ARZ056-057-069-281400-
SOUTHEAST ARKANSAS

CITY           SKY/WX    TMP DP  RH WIND       PRES   REMARKS
PINE BLUFF     CLEAR     30  27  88 S5        30.38F WCI  25
STUTTGART      CLEAR     36  28  75 SE10      30.38S
MONTICELLO     CLEAR     33  29  85 S5        30.39F WCI  29

$$




USA.gov is the U.S. government's official web portal to all federal, state and local government web resources and services.